Location: Olsztyn
(53.7767°N, 20.4765°E)
Time: 02:11:47
(UTC+02:00)

Explorer 7 - All Passes

Search period start: 09 July 2025 00:00
Search period end: 19 July 2025 00:00
Orbit: 444 x 570 km, 50.3° (Epoch: 08 July)

Date Brightness Start Highest point End Pass type
(mag) Time Alt. Az. Time Alt. Az. Time Alt. Az.
09 Jul - 07:14:25 10° S 07:17:01 16° SE 07:19:36 10° ESE daylight
09 Jul - 08:51:21 10° SW 08:55:14 39° SSE 08:58:58 10° E daylight
09 Jul - 10:29:51 10° W 10:33:48 51° S 10:37:35 10° ESE daylight
09 Jul - 12:08:44 10° W 12:12:16 31° SSW 12:15:38 10° SE daylight
10 Jul - 06:54:48 10° S 06:57:33 17° SE 07:00:14 10° ESE daylight
10 Jul - 08:31:52 10° SW 08:35:46 40° SSE 08:39:33 10° E daylight
10 Jul - 10:10:23 10° W 10:14:21 51° S 10:18:09 10° ESE daylight
10 Jul - 11:49:17 10° W 11:52:48 30° SSW 11:56:11 10° SE daylight
11 Jul - 06:35:11 10° S 06:38:02 18° SE 06:40:51 10° ESE daylight
11 Jul - 08:12:21 10° SW 08:16:18 41° SSE 08:20:06 10° E daylight
11 Jul - 09:50:53 10° W 09:54:52 51° S 09:58:42 10° ESE daylight
11 Jul - 11:29:49 10° W 11:33:19 29° SSW 11:36:41 10° SE daylight
12 Jul - 06:15:34 10° S 06:18:32 19° SSE 06:21:27 10° ESE daylight
12 Jul - 07:52:50 10° SW 07:56:48 42° SSE 08:00:39 10° E daylight
12 Jul - 09:31:23 10° W 09:35:23 51° S 09:39:15 10° ESE daylight
12 Jul - 11:10:20 10° W 11:13:50 29° SSW 11:17:11 10° SE daylight
13 Jul - 05:55:57 10° SSW 05:59:00 19° SSE 06:02:01 10° E daylight
13 Jul - 07:33:18 10° WSW 07:37:18 43° SSE 07:41:11 10° E daylight
13 Jul - 09:11:52 10° W 09:15:54 51° S 09:19:45 10° ESE daylight
13 Jul - 10:50:50 10° W 10:54:19 28° SSW 10:57:40 10° SSE daylight
14 Jul - 05:36:19 10° SSW 05:39:28 20° SSE 05:42:34 10° E daylight
14 Jul - 07:13:45 10° WSW 07:17:47 44° SSE 07:21:41 10° E daylight
14 Jul - 08:52:20 10° W 08:56:22 51° S 09:00:15 10° ESE daylight
14 Jul - 10:31:19 10° W 10:34:47 27° SSW 10:38:08 10° SSE daylight
15 Jul - 05:16:41 10° SSW 05:19:55 21° SSE 05:23:06 10° E daylight
15 Jul - 06:54:12 10° WSW 06:58:14 45° SSE 07:02:10 10° E daylight
15 Jul - 08:32:47 10° W 08:36:51 50° S 08:40:45 10° ESE daylight
15 Jul - 10:11:47 10° W 10:15:14 27° SSW 10:18:34 10° SSE daylight
16 Jul - 04:57:02 10° SSW 05:00:21 22° SSE 05:03:36 10° E daylight
16 Jul - 06:34:37 10° WSW 06:38:41 46° SSE 06:42:39 10° E daylight
16 Jul - 08:13:14 10° W 08:17:17 50° S 08:21:13 10° ESE daylight
16 Jul - 09:52:15 10° W 09:55:41 26° SSW 09:59:00 10° SSE daylight
17 Jul - 04:37:23 10° SSW 04:40:46 23° SSE 04:44:06 10° E daylight
17 Jul - 06:15:02 10° WSW 06:19:07 47° SSE 06:23:06 10° E daylight
17 Jul - 07:53:39 10° W 07:57:44 49° S 08:01:40 10° ESE daylight
17 Jul - 09:32:41 10° W 09:36:06 25° SSW 09:39:24 10° SSE daylight
18 Jul - 04:17:44 10° SSW 04:21:10 24° SSE 04:24:34 10° E daylight
18 Jul - 05:55:26 10° WSW 05:59:32 48° S 06:03:33 10° E daylight
18 Jul - 07:34:04 10° W 07:38:09 49° S 07:42:06 10° ESE daylight
18 Jul - 09:13:07 10° W 09:16:30 24° SSW 09:19:47 10° SSE daylight
